SCP
-0 0 0 0 0 0 -0 0 0 0 0 -0 -0 -0 -0 -0 -0 0 -0 -0 -0 -0 -0 -0 -0 -0 -0 0 0 0 0 0 0 0 0 0 0 0 0 0 0 0 0 0 0 0 0
0 0 0 -0 -0 -0 -0 -0 -0 -0 -0 -0 -0 -0 -0 -0 -0 -0 0 -0 -0 -0 -0 -0 -0 -0 -0 0 0 -0 0 0 0 0 0 0 0 0 0 0 0 0 0 0 0 0 0
0 0 0 0 0 -0 -0 -0 -0 -0 -0 -0 -0 -0 -0 -0 -0 0 0 0 -0 -0 -0 -0 -0 -0 -0 0 -0 -0 -0 -0 0 0 0 0 0 0 0 0 0 0 0 0 0 0 0
0 0 0 0 0 0 -0 -0 -0 -0 -0 -0 -0 -0 -0 -0 -0 -0 -0 -0 -0 -0 0 0 -0 -0 -0 0 -0 -0 -0 -0 -0 -0 -0 0 0 0 0 0 0 0 0 0 0 0 0
0 0 0 0 0 0 -0 -0 -0 -0 -0 -0 -0 -0 -0 -0 -0 -0 -0 -0 -0 0 0 0 0 0 0 0 0 0 -0 -0 -0 -0 -0 0 0 0 0 0 0 0 0 0 0 0 0
0 0 0 0 0 0 0 -0 -0 -0 -0 -0 -0 -0 -0 -0 -0 -0 -0 -0 0 0 0 0 0 0 0 0 0 0 -0 -0 -0 -0 -0 -0 0 0 0 0 0 0 0 0 0 0 0
0 0 0 0 0 0 0 0 0 -0 -0 -0 -0 -0 -0 -0 -0 0 0 0 0 0 0 0 0 0 0 0 -0 -0 0 -0 -0 -0 -0 0 0 0 0 0 0 0 0 0 0 0 0
0 0 0 0 0 0 0 0 0 0 0 0 -0 -0 -0 -0 -0 -0 0 0 0 0 0 0 0 0 0 0 -0 0 0 -0 0 -0 0 0 0 0 0 0 0 0 0 0 0 0 0
0 0 0 0 0 0 0 0 0 0 0 -0 -0 -0 -0 -0 -0 0 0 0 0 0 0 0 0 0 0 0 0 -0 -0 -0 -0 -0 0 0 0 0 0 0 0 0 0 0 0 0 0
-0 -0 0 -0 0 0 0 0 0 -0 -0 -0 -0 -0 0 0 0 0 0 0 0 0 0 0 0 0 0 0 -0 0 0 0 0 -0 0 0 0 0 0 0 0 0 0 0 0 0 0
-0 -0 -0 -0 -0 0 0 0 -0 -0 -0 -0 -0 -0 0 0 0 0 0 0 0 0 0 0 0 0 0 0 0 0 0 0 -0 -0 0 -0 0 0 0 0 0 0 0 0 0 0 0
0 -0 -0 -0 -0 -0 -0 0 0 -0 -0 -0 -0 0 0 0 0 0 0 0 0 0 0 0 0 0 0 0 0 0 0 0 0 -0 -0 -0 0 0 0 0 0 0 0 0 0 0 0
0 0 0 -0 -0 -0 0 0 0 0 -0 -0 -0 0 0 0 0 0 0 0 0 0 0 0 0 0 0 0 0 0 0 0 0 0 0 -0 0 0 0 0 -0 0 0 0 0 0 0
0 0 0 0 0 -0 0 0 0 0 0 -0 0 0 0 0 0 0 0 0 0 0 0 0 0 0 0 0 0 0 0 0 0 0 0 0 0 -0 0 0 0 0 0 0 0 0 0
0 0 0 0 0 0 0 0 0 0 0 -0 0 0 0 0 0 0 0 0 0 0 0 0 0 0 0 0 0 0 0 0 0 0 0 0 0 -0 0 0 -0 0 0 0 0 0 0
0 0 0 0 0 0 0 0 0 0 0 -0 0 0 0 0 0 0 0 0 0 0 0 0 0 0 0 0 0 0 0 0 0 0 0 0 0 -0 -0 0 -0 0 -0 0 0 0 -0
0 0 0 0 0 0 0 0 -0 0 -0 0 0 0 0 0 0 0 0 0 0 0 0 0 0 0 0 0 0 0 0 0 0 0 -0 -0 -0 -0 -0 0 0 0 -0 0 0 0 0
0 0 0 0 0 0 0 0 0 0 0 0 0 0 0 0 0 0 0 0 0 0 0 0 0 0 0 0 0 0 0 0 -0 0 0 0 0 0 -0 0 0 0 -0 -0 0 0 0
0 0 0 0 0 0 0 0 0 0 0 0 0 0 0 0 0 0 0 0 0 0 0 0 0 0 0 0 0 0 0 0 0 -0 0 0 0 0 0 0 0 0 -0 0 0 0 0
0 0 0 0 0 0 0 0 0 0 0 0 0 0 0 0 0 0 0 0 0 0 0 0 0 0 0 0 0 0 0 0 0 -0 -0 0 -0 0 0 -0 0 0 0 -0 0 0 0
0 0 0 0 0 0 0 0 0 0 0 0 0 0 0 0 0 0 0 0 0 0 0 0 0 0 0 0 -0 0 0 -0 -0 -0 -0 0 0 -0 -0 -0 -0 -0 -0 -0 -0 -0 0
0 0 0 0 0 0 0 0 0 0 0 0 0 0 0 -0 0 0 0 0 0 0 0 0 0 0 0 -0 0 -0 -0 0 0 0 0 -0 0 0 -0 0 -0 -0 -0 -0 -0 0 -0
0 0 0 0 0 0 0 0 0 0 0 0 0 0 0 0 0 0 0 0 0 0 0 0 0 0 0 -0 -0 -0 -0 -0 0 0 0 0 -0 0 0 -0 -0 -0 -0 -0 0 0 -0
0 0 0 0 0 0 0 0 0 0 0 0 0 0 0 0 0 0 0 0 0 0 0 -0 -0 -0 0 -0 -0 -0 -0 0 0 0 0 0 -0 -0 -0 -0 0 0 0 -0 0 0 0
0 0 0 0 0 0 0 0 0 0 0 0 0 0 0 0 0 0 0 0 0 0 0 0 0 0 -0 -0 -0 -0 0 0 0 0 0 0 0 0 0 0 -0 0 0 0 0 0 0
0 0 0 0 0 0 0 0 0 0 0 0 0 0 0 0 0 0 0 0 0 0 0 0 -0 0 -0 0 -0 0 -0 0 0 0 0 0 0 0 0 0 0 0 0 0 0 -0 0
0 0 0 0 0 0 0 0 0 0 0 0 0 0 0 0 0 0 0 0 0 0 0 0 0 0 -0 -0 0 0 -0 -0 -0 0 0 0 0 0 0 0 0 0 0 -0 -0 0 -0
0 0 0 0 0 0 0 0 0 0 0 0 0 0 0 0 0 0 0 0 0 0 0 0 0 0 -0 0 0 -0 -0 -0 -0 0 0 0 0 0 0 0 0 0 -0 0 0 -0 -0
0 0 0 0 0 0 0 0 0 0 0 0 0 0 0 0 0 0 0 -0 -0 -0 0 0 0 -0 0 0 -0 -0 0 0 -0 -0 0 0 0 0 0 0 -0 0 0 -0 -0 -0 -0
Wind_Speed_500mb
33 34 35 36 37 37 37 36 34 33 31 29 27 27 27 28 26 24 19 22 27 29 26 24 29 34 19 6 11 15 18 16 14 13 9 15 23 32 48 37 59 58 57 62 59 59 48
35 36 36 37 37 38 38 37 37 36 33 30 28 27 26 27 24 21 18 20 24 27 28 29 33 20 9 12 16 15 24 14 12 15 13 15 22 25 37 49 50 39 57 70 71 59 51
35 35 35 35 36 38 38 39 40 39 36 33 30 29 27 27 24 22 19 20 28 29 26 24 25 15 8 17 23 22 23 16 18 13 16 18 25 29 13 31 52 58 51 50 48 61 62
37 37 37 36 38 39 39 40 41 41 39 36 34 31 28 28 24 20 22 25 31 25 15 18 16 11 2 22 30 25 19 21 21 17 14 15 17 34 46 40 37 33 44 49 64 51 48
39 38 38 39 40 41 42 42 43 44 43 40 36 33 29 26 21 19 26 32 29 19 12 13 11 3 7 14 25 24 23 23 26 19 19 15 15 31 29 33 34 40 50 60 54 55 48
40 40 41 43 44 45 45 45 43 44 46 45 41 37 33 29 23 20 30 27 21 10 14 10 8 5 2 19 31 28 19 24 19 20 21 21 20 23 24 30 42 51 50 51 55 45 53
43 44 44 44 45 46 47 48 47 45 47 47 45 39 34 26 21 20 26 21 12 3 13 14 6 10 15 27 28 30 21 22 15 18 22 26 23 28 31 37 48 51 56 48 41 40 51
43 44 45 46 46 48 50 51 50 49 49 50 50 42 35 25 14 18 20 8 7 11 16 14 17 15 12 13 32 26 12 20 21 27 27 23 33 33 35 32 40 43 49 58 47 26 37
42 43 44 46 49 51 53 55 54 54 52 52 53 46 38 21 8 14 6 8 9 13 14 3 7 10 5 24 23 15 33 22 25 29 28 32 34 32 20 26 37 44 50 49 54 43 38
44 45 45 46 48 52 54 56 58 57 56 55 55 51 34 12 0 7 3 11 20 4 9 8 7 5 11 32 18 29 15 12 19 32 31 30 20 20 31 39 36 42 41 50 49 44 47
45 47 48 49 50 51 54 56 57 58 58 58 57 45 28 8 7 4 8 20 11 3 8 5 6 4 22 19 23 15 13 24 33 36 30 39 39 37 32 37 41 44 38 42 42 45 47
46 49 49 51 52 54 57 59 58 58 58 59 55 32 18 10 9 4 16 9 7 11 1 3 4 18 20 22 17 16 20 26 29 32 30 38 39 35 39 39 47 41 43 40 44 39 40
43 48 49 52 54 61 58 56 61 60 58 59 48 17 8 12 3 12 19 3 10 9 4 3 15 24 31 17 21 15 24 20 13 16 25 36 10 21 34 45 42 35 33 25 31 36 43
43 46 49 52 54 59 65 65 60 61 60 59 40 4 7 1 6 15 8 12 8 4 9 19 21 36 14 15 15 22 16 21 3 16 27 16 17 19 9 20 34 38 37 27 39 31 40
44 46 47 51 54 59 64 66 66 64 61 59 32 3 1 4 8 18 18 10 7 9 9 18 29 17 6 9 14 16 23 11 9 17 18 23 18 16 16 25 30 39 35 39 46 42 33
46 47 48 50 52 56 62 67 68 67 62 60 23 4 2 4 13 10 11 9 7 5 14 15 18 6 22 25 23 18 18 5 15 10 23 18 22 9 4 14 28 30 31 26 26 16 35
49 50 51 52 52 54 56 64 67 71 65 55 15 8 6 7 13 9 6 9 14 10 15 10 17 24 26 25 20 23 12 24 5 21 26 30 13 22 24 13 11 21 26 26 14 26 25
52 52 51 50 51 52 53 56 60 65 68 50 16 7 8 14 6 2 7 13 16 9 8 15 15 21 21 25 22 27 23 16 36 28 33 24 13 24 30 18 15 10 19 10 15 23 31
53 52 48 48 48 49 53 50 54 58 57 52 23 9 10 11 4 10 10 15 11 13 8 9 13 10 23 29 15 16 23 27 29 28 12 15 8 17 13 9 10 15 27 27 28 29 26
52 49 47 46 48 51 53 55 54 53 49 34 12 6 1 7 7 11 18 7 8 8 22 12 20 30 28 26 23 20 36 22 29 40 31 14 22 27 26 36 26 21 22 24 28 22 33
49 45 47 48 49 51 52 51 54 51 39 19 7 5 7 7 8 19 16 14 16 11 8 21 13 14 22 17 35 42 27 39 48 46 43 10 20 33 35 39 36 38 37 37 38 38 39
47 48 45 47 51 53 53 53 49 47 31 7 11 10 10 31 13 16 2 7 15 13 21 26 23 30 28 35 36 47 45 37 13 17 14 10 15 27 34 32 35 41 42 43 44 45 43
45 43 46 51 54 55 54 47 41 37 15 5 7 8 5 15 11 10 10 11 24 30 22 24 24 30 36 40 48 60 64 61 41 20 14 8 14 16 29 28 24 29 34 38 36 39 36
45 47 51 55 55 53 48 40 34 23 8 14 17 17 2 9 8 14 20 29 25 31 32 51 42 32 30 51 67 58 46 38 28 22 19 10 21 16 14 18 20 24 6 21 19 25 33
48 52 55 57 55 53 42 37 27 12 10 15 20 14 8 8 17 31 10 27 33 35 32 40 32 27 40 39 20 20 9 8 13 12 18 21 9 7 8 18 31 37 11 12 16 35 37
53 57 59 56 53 47 42 37 28 17 15 16 15 25 20 9 9 10 43 31 17 15 24 22 28 29 21 8 8 8 8 10 8 19 12 2 15 8 9 10 9 5 9 10 14 31 26
59 58 56 53 48 44 39 35 29 20 15 16 19 23 23 18 30 14 17 22 13 11 9 30 17 18 8 9 3 6 7 14 10 13 12 7 5 20 27 14 14 3 17 19 11 10 40
56 54 53 48 46 44 40 35 30 21 16 18 23 25 27 27 52 51 45 35 25 17 7 17 22 3 13 6 6 6 5 7 8 18 16 6 8 4 6 10 6 18 21 9 19 54 44
52 54 51 45 45 44 41 38 31 26 16 19 30 22 28 35 46 60 62 60 62 57 40 12 12 15 10 6 5 6 6 7 12 8 9 4 5 6 6 8 31 42 21 49 52 54 61
Wind_Direction_500mb
27 25 24 21 19 17 16 14 11 7 2 358 357 354 353 353 354 355 350 349 348 356 7 2 353 348 15 54 30 329 5 350 358 340 284 251 241 233 239 236 234 237 240 246 246 253 246
24 21 19 17 17 17 14 11 7 4 360 356 352 350 350 352 352 353 350 339 338 340 339 343 354 22 43 67 5 358 345 340 333 333 311 258 243 250 273 256 246 240 245 249 253 244 245
21 17 17 18 17 15 13 10 7 5 1 356 352 348 348 348 352 356 354 338 330 329 327 340 3 53 46 37 17 9 349 328 304 308 318 295 258 237 264 259 253 255 262 261 246 247 243
22 19 18 18 14 10 8 7 7 6 5 2 356 350 346 346 346 347 347 334 326 320 325 342 8 42 344 14 14 357 347 350 327 299 282 293 264 252 251 255 275 256 251 249 239 233 240
22 19 17 13 9 7 3 0 0 1 2 0 357 351 341 339 338 338 345 340 335 331 348 351 28 335 86 353 4 351 330 332 322 297 268 262 254 249 251 239 252 240 245 240 251 236 224
24 21 19 17 14 13 8 3 358 359 357 355 352 349 343 335 338 337 347 346 342 328 355 3 344 253 219 341 335 336 330 321 311 305 266 249 245 244 232 234 237 239 242 247 257 253 222
21 19 17 15 13 10 11 10 4 0 355 352 348 344 341 332 335 336 354 350 318 237 305 279 319 302 316 323 325 313 308 313 285 274 275 269 264 255 262 258 257 266 269 268 261 270 253
16 14 11 9 8 8 7 6 6 1 355 349 344 340 338 330 330 355 16 27 22 317 296 285 251 271 293 320 313 336 332 306 302 294 298 269 250 266 279 279 273 264 260 258 259 275 269
13 12 10 7 5 4 3 360 359 358 355 348 340 337 332 321 298 356 41 24 352 332 268 287 226 262 281 316 303 296 310 286 285 293 285 278 287 297 269 259 254 254 254 258 254 253 237
10 8 6 4 2 0 360 357 355 354 352 348 341 335 334 312 351 355 13 325 332 302 267 126 174 170 278 320 258 304 296 288 285 292 287 287 297 289 268 262 257 267 259 254 258 251 245
10 9 7 3 0 358 355 353 352 351 350 348 341 336 332 255 167 34 300 325 321 149 273 66 177 277 312 301 309 316 300 280 291 292 287 271 287 291 271 269 263 262 262 255 246 251 250
8 7 6 6 3 359 354 352 349 349 349 351 344 341 344 136 122 28 352 335 145 232 226 151 262 314 310 326 300 308 294 292 272 276 270 269 276 258 273 281 265 259 257 246 248 249 239
3 3 2 1 3 5 360 352 352 349 349 352 347 351 102 127 170 356 354 156 251 268 115 45 325 320 317 309 307 331 326 317 327 312 321 312 339 348 321 256 245 234 243 240 228 226 241
355 356 357 358 357 358 4 2 355 354 350 351 348 331 158 143 335 344 328 244 279 64 328 334 319 311 302 350 330 328 314 320 110 313 316 344 319 0 324 287 250 222 234 235 242 235 232
345 347 349 352 353 354 357 3 1 356 353 349 349 208 162 302 327 332 281 259 315 354 352 323 314 302 314 283 321 316 327 315 341 341 344 314 306 281 343 298 277 227 248 261 268 285 280
345 345 344 344 345 348 352 355 359 358 354 351 1 206 242 281 327 310 267 278 289 306 311 300 301 289 315 324 313 328 319 305 318 301 331 312 300 324 294 304 256 254 227 248 240 265 259
346 343 340 340 341 344 349 351 354 351 356 353 5 257 308 316 339 266 278 336 306 308 301 286 295 287 300 308 301 306 292 301 297 314 311 308 274 288 287 233 254 272 239 208 212 287 281
345 343 340 339 340 342 346 352 350 349 348 360 356 267 316 356 256 228 288 343 329 292 219 273 278 279 283 297 291 290 287 291 316 312 301 327 290 286 290 278 225 175 245 342 267 232 249
343 343 343 342 341 343 342 348 346 349 352 348 335 295 326 7 342 325 328 300 268 283 285 289 282 272 304 288 297 292 277 296 295 299 313 353 269 301 288 209 201 217 244 243 244 273 260
341 342 345 348 346 344 343 340 343 348 351 350 332 302 151 39 12 321 338 314 300 265 285 282 277 293 286 291 280 276 286 291 292 290 297 314 268 258 274 293 320 295 274 255 270 263 263
338 340 341 340 340 338 336 335 337 339 346 4 340 36 348 307 328 324 305 286 293 308 264 295 284 279 296 288 300 290 296 300 298 282 263 252 260 272 271 276 275 275 270 265 257 259 260
338 337 339 339 340 340 335 330 332 334 343 12 347 348 326 295 301 293 25 295 305 312 314 289 273 295 301 285 287 289 298 300 263 290 264 229 261 274 275 265 266 268 267 261 257 255 254
339 340 337 337 337 337 336 337 341 341 340 1 316 323 291 301 307 301 305 331 314 316 301 270 285 300 291 287 294 294 287 277 262 245 254 244 264 277 268 274 295 278 267 265 260 254 254
337 334 334 334 334 334 337 342 350 354 2 310 322 296 241 288 290 307 295 298 309 306 291 292 293 283 288 302 299 288 263 256 253 266 240 235 232 250 273 299 259 254 342 316 304 297 288
332 329 327 327 330 331 329 332 344 347 346 306 292 291 237 275 270 294 261 321 296 303 296 298 289 313 306 304 298 306 202 202 211 216 208 224 234 259 240 230 277 295 295 306 309 289 292
329 327 326 327 329 328 325 322 321 318 291 307 285 263 263 280 242 341 303 292 299 306 304 299 318 311 303 283 305 297 346 319 323 327 191 191 214 250 243 249 262 41 163 358 322 276 27
330 329 328 329 332 330 328 325 321 318 268 274 280 269 267 262 276 259 286 302 279 263 268 297 343 317 255 314 350 323 317 332 316 309 318 300 212 223 247 257 262 6 7 323 226 344 322
333 332 331 331 332 329 326 324 320 315 277 270 274 272 261 270 279 275 274 260 249 230 245 302 319 84 288 325 331 7 291 315 291 287 294 288 302 297 261 239 262 1 318 248 332 312 299
331 331 331 335 334 331 327 323 322 317 294 267 274 270 283 263 266 285 278 264 255 253 258 239 272 326 276 306 337 314 277 264 301 290 319 291 258 289 246 299 288 295 257 278 278 274 284
Wind_Speed_850mb
33 34 35 36 37 37 37 36 34 33 31 29 27 27 27 28 26 24 19 22 27 29 26 24 29 34 19 6 11 15 18 16 14 13 9 15 23 32 48 37 59 58 57 62 59 59 48
35 36 36 37 37 38 38 37 37 36 33 30 28 27 26 27 24 21 18 20 24 27 28 29 33 20 9 12 16 15 24 14 12 15 13 15 22 25 37 49 50 39 57 70 71 59 51
35 35 35 35 36 38 38 39 40 39 36 33 30 29 27 27 24 22 19 20 28 29 26 24 25 15 8 17 23 22 23 16 18 13 16 18 25 29 13 31 52 58 51 50 48 61 62
37 37 37 36 38 39 39 40 41 41 39 36 34 31 28 28 24 20 22 25 31 25 15 18 16 11 2 22 30 25 19 21 21 17 14 15 17 34 46 40 37 33 44 49 64 51 48
39 38 38 39 40 41 42 42 43 44 43 40 36 33 29 26 21 19 26 32 29 19 12 13 11 3 7 14 25 24 23 23 26 19 19 15 15 31 29 33 34 40 50 60 54 55 48
40 40 41 43 44 45 45 45 43 44 46 45 41 37 33 29 23 20 30 27 21 10 14 10 8 5 2 19 31 28 19 24 19 20 21 21 20 23 24 30 42 51 50 51 55 45 53
43 44 44 44 45 46 47 48 47 45 47 47 45 39 34 26 21 20 26 21 12 3 13 14 6 10 15 27 28 30 21 22 15 18 22 26 23 28 31 37 48 51 56 48 41 40 51
43 44 45 46 46 48 50 51 50 49 49 50 50 42 35 25 14 18 20 8 7 11 16 14 17 15 12 13 32 26 12 20 21 27 27 23 33 33 35 32 40 43 49 58 47 26 37
42 43 44 46 49 51 53 55 54 54 52 52 53 46 38 21 8 14 6 8 9 13 14 3 7 10 5 24 23 15 33 22 25 29 28 32 34 32 20 26 37 44 50 49 54 43 38
44 45 45 46 48 52 54 56 58 57 56 55 55 51 34 12 0 7 3 11 20 4 9 8 7 5 11 32 18 29 15 12 19 32 31 30 20 20 31 39 36 42 41 50 49 44 47
45 47 48 49 50 51 54 56 57 58 58 58 57 45 28 8 7 4 8 20 11 3 8 5 6 4 22 19 23 15 13 24 33 36 30 39 39 37 32 37 41 44 38 42 42 45 47
46 49 49 51 52 54 57 59 58 58 58 59 55 32 18 10 9 4 16 9 7 11 1 3 4 18 20 22 17 16 20 26 29 32 30 38 39 35 39 39 47 41 43 40 44 39 40
43 48 49 52 54 61 58 56 61 60 58 59 48 17 8 12 3 12 19 3 10 9 4 3 15 24 31 17 21 15 24 20 13 16 25 36 10 21 34 45 42 35 33 25 31 36 43
43 46 49 52 54 59 65 65 60 61 60 59 40 4 7 1 6 15 8 12 8 4 9 19 21 36 14 15 15 22 16 21 3 16 27 16 17 19 9 20 34 38 37 27 39 31 40
44 46 47 51 54 59 64 66 66 64 61 59 32 3 1 4 8 18 18 10 7 9 9 18 29 17 6 9 14 16 23 11 9 17 18 23 18 16 16 25 30 39 35 39 46 42 33
46 47 48 50 52 56 62 67 68 67 62 60 23 4 2 4 13 10 11 9 7 5 14 15 18 6 22 25 23 18 18 5 15 10 23 18 22 9 4 14 28 30 31 26 26 16 35
49 50 51 52 52 54 56 64 67 71 65 55 15 8 6 7 13 9 6 9 14 10 15 10 17 24 26 25 20 23 12 24 5 21 26 30 13 22 24 13 11 21 26 26 14 26 25
52 52 51 50 51 52 53 56 60 65 68 50 16 7 8 14 6 2 7 13 16 9 8 15 15 21 21 25 22 27 23 16 36 28 33 24 13 24 30 18 15 10 19 10 15 23 31
53 52 48 48 48 49 53 50 54 58 57 52 23 9 10 11 4 10 10 15 11 13 8 9 13 10 23 29 15 16 23 27 29 28 12 15 8 17 13 9 10 15 27 27 28 29 26
52 49 47 46 48 51 53 55 54 53 49 34 12 6 1 7 7 11 18 7 8 8 22 12 20 30 28 26 23 20 36 22 29 40 31 14 22 27 26 36 26 21 22 24 28 22 33
49 45 47 48 49 51 52 51 54 51 39 19 7 5 7 7 8 19 16 14 16 11 8 21 13 14 22 17 35 42 27 39 48 46 43 10 20 33 35 39 36 38 37 37 38 38 39
47 48 45 47 51 53 53 53 49 47 31 7 11 10 10 31 13 16 2 7 15 13 21 26 23 30 28 35 36 47 45 37 13 17 14 10 15 27 34 32 35 41 42 43 44 45 43
45 43 46 51 54 55 54 47 41 37 15 5 7 8 5 15 11 10 10 11 24 30 22 24 24 30 36 40 48 60 64 61 41 20 14 8 14 16 29 28 24 29 34 38 36 39 36
45 47 51 55 55 53 48 40 34 23 8 14 17 17 2 9 8 14 20 29 25 31 32 51 42 32 30 51 67 58 46 38 28 22 19 10 21 16 14 18 20 24 6 21 19 25 33
48 52 55 57 55 53 42 37 27 12 10 15 20 14 8 8 17 31 10 27 33 35 32 40 32 27 40 39 20 20 9 8 13 12 18 21 9 7 8 18 31 37 11 12 16 35 37
53 57 59 56 53 47 42 37 28 17 15 16 15 25 20 9 9 10 43 31 17 15 24 22 28 29 21 8 8 8 8 10 8 19 12 2 15 8 9 10 9 5 9 10 14 31 26
59 58 56 53 48 44 39 35 29 20 15 16 19 23 23 18 30 14 17 22 13 11 9 30 17 18 8 9 3 6 7 14 10 13 12 7 5 20 27 14 14 3 17 19 11 10 40
56 54 53 48 46 44 40 35 30 21 16 18 23 25 27 27 52 51 45 35 25 17 7 17 22 3 13 6 6 6 5 7 8 18 16 6 8 4 6 10 6 18 21 9 19 54 44
52 54 51 45 45 44 41 38 31 26 16 19 30 22 28 35 46 60 62 60 62 57 40 12 12 15 10 6 5 6 6 7 12 8 9 4 5 6 6 8 31 42 21 49 52 54 61
Wind_Direction_850mb
27 25 24 21 19 17 16 14 11 7 2 358 357 354 353 353 354 355 350 349 348 356 7 2 353 348 15 54 30 329 5 350 358 340 284 251 241 233 239 236 234 237 240 246 246 253 246
24 21 19 17 17 17 14 11 7 4 360 356 352 350 350 352 352 353 350 339 338 340 339 343 354 22 43 67 5 358 345 340 333 333 311 258 243 250 273 256 246 240 245 249 253 244 245
21 17 17 18 17 15 13 10 7 5 1 356 352 348 348 348 352 356 354 338 330 329 327 340 3 53 46 37 17 9 349 328 304 308 318 295 258 237 264 259 253 255 262 261 246 247 243
22 19 18 18 14 10 8 7 7 6 5 2 356 350 346 346 346 347 347 334 326 320 325 342 8 42 344 14 14 357 347 350 327 299 282 293 264 252 251 255 275 256 251 249 239 233 240
22 19 17 13 9 7 3 0 0 1 2 0 357 351 341 339 338 338 345 340 335 331 348 351 28 335 86 353 4 351 330 332 322 297 268 262 254 249 251 239 252 240 245 240 251 236 224
24 21 19 17 14 13 8 3 358 359 357 355 352 349 343 335 338 337 347 346 342 328 355 3 344 253 219 341 335 336 330 321 311 305 266 249 245 244 232 234 237 239 242 247 257 253 222
21 19 17 15 13 10 11 10 4 0 355 352 348 344 341 332 335 336 354 350 318 237 305 279 319 302 316 323 325 313 308 313 285 274 275 269 264 255 262 258 257 266 269 268 261 270 253
16 14 11 9 8 8 7 6 6 1 355 349 344 340 338 330 330 355 16 27 22 317 296 285 251 271 293 320 313 336 332 306 302 294 298 269 250 266 279 279 273 264 260 258 259 275 269
13 12 10 7 5 4 3 360 359 358 355 348 340 337 332 321 298 356 41 24 352 332 268 287 226 262 281 316 303 296 310 286 285 293 285 278 287 297 269 259 254 254 254 258 254 253 237
10 8 6 4 2 0 360 357 355 354 352 348 341 335 334 312 351 355 13 325 332 302 267 126 174 170 278 320 258 304 296 288 285 292 287 287 297 289 268 262 257 267 259 254 258 251 245
10 9 7 3 0 358 355 353 352 351 350 348 341 336 332 255 167 34 300 325 321 149 273 66 177 277 312 301 309 316 300 280 291 292 287 271 287 291 271 269 263 262 262 255 246 251 250
8 7 6 6 3 359 354 352 349 349 349 351 344 341 344 136 122 28 352 335 145 232 226 151 262 314 310 326 300 308 294 292 272 276 270 269 276 258 273 281 265 259 257 246 248 249 239
3 3 2 1 3 5 360 352 352 349 349 352 347 351 102 127 170 356 354 156 251 268 115 45 325 320 317 309 307 331 326 317 327 312 321 312 339 348 321 256 245 234 243 240 228 226 241
355 356 357 358 357 358 4 2 355 354 350 351 348 331 158 143 335 344 328 244 279 64 328 334 319 311 302 350 330 328 314 320 110 313 316 344 319 0 324 287 250 222 234 235 242 235 232
345 347 349 352 353 354 357 3 1 356 353 349 349 208 162 302 327 332 281 259 315 354 352 323 314 302 314 283 321 316 327 315 341 341 344 314 306 281 343 298 277 227 248 261 268 285 280
345 345 344 344 345 348 352 355 359 358 354 351 1 206 242 281 327 310 267 278 289 306 311 300 301 289 315 324 313 328 319 305 318 301 331 312 300 324 294 304 256 254 227 248 240 265 259
346 343 340 340 341 344 349 351 354 351 356 353 5 257 308 316 339 266 278 336 306 308 301 286 295 287 300 308 301 306 292 301 297 314 311 308 274 288 287 233 254 272 239 208 212 287 281
345 343 340 339 340 342 346 352 350 349 348 360 356 267 316 356 256 228 288 343 329 292 219 273 278 279 283 297 291 290 287 291 316 312 301 327 290 286 290 278 225 175 245 342 267 232 249
343 343 343 342 341 343 342 348 346 349 352 348 335 295 326 7 342 325 328 300 268 283 285 289 282 272 304 288 297 292 277 296 295 299 313 353 269 301 288 209 201 217 244 243 244 273 260
341 342 345 348 346 344 343 340 343 348 351 350 332 302 151 39 12 321 338 314 300 265 285 282 277 293 286 291 280 276 286 291 292 290 297 314 268 258 274 293 320 295 274 255 270 263 263
338 340 341 340 340 338 336 335 337 339 346 4 340 36 348 307 328 324 305 286 293 308 264 295 284 279 296 288 300 290 296 300 298 282 263 252 260 272 271 276 275 275 270 265 257 259 260
338 337 339 339 340 340 335 330 332 334 343 12 347 348 326 295 301 293 25 295 305 312 314 289 273 295 301 285 287 289 298 300 263 290 264 229 261 274 275 265 266 268 267 261 257 255 254
339 340 337 337 337 337 336 337 341 341 340 1 316 323 291 301 307 301 305 331 314 316 301 270 285 300 291 287 294 294 287 277 262 245 254 244 264 277 268 274 295 278 267 265 260 254 254
337 334 334 334 334 334 337 342 350 354 2 310 322 296 241 288 290 307 295 298 309 306 291 292 293 283 288 302 299 288 263 256 253 266 240 235 232 250 273 299 259 254 342 316 304 297 288
332 329 327 327 330 331 329 332 344 347 346 306 292 291 237 275 270 294 261 321 296 303 296 298 289 313 306 304 298 306 202 202 211 216 208 224 234 259 240 230 277 295 295 306 309 289 292
329 327 326 327 329 328 325 322 321 318 291 307 285 263 263 280 242 341 303 292 299 306 304 299 318 311 303 283 305 297 346 319 323 327 191 191 214 250 243 249 262 41 163 358 322 276 27
330 329 328 329 332 330 328 325 321 318 268 274 280 269 267 262 276 259 286 302 279 263 268 297 343 317 255 314 350 323 317 332 316 309 318 300 212 223 247 257 262 6 7 323 226 344 322
333 332 331 331 332 329 326 324 320 315 277 270 274 272 261 270 279 275 274 260 249 230 245 302 319 84 288 325 331 7 291 315 291 287 294 288 302 297 261 239 262 1 318 248 332 312 299
331 331 331 335 334 331 327 323 322 317 294 267 274 270 283 263 266 285 278 264 255 253 258 239 272 326 276 306 337 314 277 264 301 290 319 291 258 289 246 299 288 295 257 278 278 274 284